Regional Weather Roundup
Issued by NWS

Home | Current Version | Previous Version | Graphics & Text | Print | Product List | Glossary On
Versions: 1 2 3 4 5 6 7 8 9 10 11 12 13 14 15 16 17 18 19 20 21 22 23 24 25 26 27 28 29 30 31 32 33 34 35 36 37 38 39 40 41 42 43 44 45 46 47 48 49
000
ASUS45 KCYS 050310
RWRWY

WYOMING REGIONAL WEATHER ROUNDUP
NATIONAL WEATHER SERVICE CHEYENNE WY
800 PM MST WED MAR 04 2015

NOTE:  "FAIR" INDICATES FEW OR NO CLOUDS BELOW 12,000 FEET
WITH NO SIGNIFICANT WEATHER AND/OR OBSTRUCTIONS TO VISIBILITY.

WYZ001-050400-
YELLOWSTONE NATIONAL PARK

CITY           SKY/WX    TMP DP  RH WIND       PRES   REMARKS
LK YELLOWSTONE   N/A      8  -3  61 CALM      30.14R
W YELLOWSTONE  NOT AVBL

$$
WYZ002>013-054>058-071-098>099-050400-
NORTHERN WYOMING

CITY           SKY/WX    TMP DP  RH WIND       PRES   REMARKS
JACKSON        NOT AVBL
CODY           FAIR      16   9  73 CALM      30.08S
GREYBULL       FAIR      17   5  59 E5        30.17S WCI  10
WORLAND        FAIR      16   5  62 CALM      30.15R
SHERIDAN       FAIR       4  -5  66 CALM      30.11F
BUFFALO        FAIR      14  -2  49 S6        30.08S WCI   5
GILLETTE       FAIR       2  -3  80 S8        30.12S WCI -12
HULETT         FAIR       7  -4  61 S10       30.13F WCI  -8
NEWCASTLE      FAIR      10  -4  52 N5        30.17S WCI   2

$$
WYZ014>020-022>026-101>103-050400-
CENTRAL WYOMING

CITY           SKY/WX    TMP DP  RH WIND       PRES   REMARKS
BIG PINEY      FAIR      20   0  41 N16       30.14R WCI   6
PINEDALE       FAIR       9   0  66 NW12      30.13R WCI  -6
DUBOIS         FAIR      18   0  45 NW17G24   30.07R WCI   2
LANDER         FAIR       4  -1  80 NW5       30.11R WCI  -5
RIVERTON       FAIR       4  -2  76 CALM      30.12S
CASPER         FAIR       7  -3  64 W6        30.12S WCI  -3
DOUGLAS        FAIR       0  -6  76 CALM      30.15R

$$
WYZ021-027>030-104>119-050400-
SOUTHERN WYOMING

CITY           SKY/WX    TMP DP  RH WIND       PRES   REMARKS
EVANSTON       FAIR      13   6  74 SW10      30.21R WCI   0
FORT BRIDGER   FAIR      19  12  74 W15       30.21R WCI   5
ROCK SPRINGS   FAIR      17   6  62 W18       30.14R WCI   1
DIXON          FAIR      12   3  67 NE9       30.22R WCI   0
RAWLINS        FAIR       9   0  67 W7        30.12R WCI  -2
SARATOGA       FAIR       1  -6  71 MISG      30.14R
LARAMIE        FAIR       2  -9  60 CALM      30.06R
CHEYENNE       FAIR       8  -3  61 SW10      30.11R WCI  -6
TORRINGTON     FAIR      16   1  51 NW5       30.19R WCI   9
PINE BLUFFS    FAIR      12   3  67 SW3       30.18R

$$



USA.gov is the U.S. government's official web portal to all federal, state and local government web resources and services.